Location: La Fredeussais
(48.1780°N, 1.3980°W)
Time: 18:41:43
(UTC+00:00)

Meteor 1-27 Rocket - Pass Details

Date: 09 May 2021
Orbit: 829 x 910 km, 81.3° (Epoch: 21 June)

Event Time Altitude Azimuth Distance (km) Brightness Sun altitude
Exits shadow 22:12:05 35° 167° (SSE) 1,393 4.3 -19.8°
Maximum altitude 22:14:32 66° 97° (E) 975 3.8 -20.0°
Drops below altitude 10° 22:20:24 10° 16° (NNE) 2,598 6.9 -20.4°
Sets 22:22:54 0° 14° (NNE) 3,549 7.7 -20.6°
